Location: Newark
(11.2914°S, 14.4718°E)
Time: 16:24:11
(UTC+00:00)

Tiros 1 despin weight - Pass Details

Date: 27 September 2019
Orbit: 593 x 643 km, 48.2° (Epoch: 19 October)

Event Time Altitude Azimuth Distance (km) Brightness Sun altitude
Rises 03:55:21 0° 202° (SSW) 2,944 ? -13.9°
Reaches altitude 10° 03:58:03 10° 188° (S) 2,036 ? -13.2°
Maximum altitude 04:01:52 24° 134° (SE) 1,326 ? -12.3°
Drops below altitude 10° 04:05:39 10° 80° (E) 2,030 ? -11.4°
Sets 04:08:21 0° 66° (ENE) 2,933 ? -10.7°
